GLO1390 SBGL-SBFI

Flight info

Callsign GLO1390
Flight time N/A
Altitude 34000
Route NAXOP UZ45 RAXIT DCT DIDOM
Aircraft B38M/M-DFGHIJ4J7KLORWXY/LB1

Departure

Time N/A
Airport Rio Galeão – Tom Jobim International Airport (SBGL)

Arrival

Time 2026-05-03 21:20
Airport Cataratas International Airport (SBFI)
Time Latitude Longitude Altitude Speed Heading
2026-05-03 20:15 -24.50952 -48.20048 34249 ft 375 kts 261°
2026-05-03 20:15 -24.51941 -48.25677 34242 ft 375 kts 261°
2026-05-03 20:16 -24.52927 -48.31301 34247 ft 374 kts 261°
2026-05-03 20:16 -24.53908 -48.36911 34245 ft 374 kts 261°
2026-05-03 20:17 -24.54889 -48.42531 34242 ft 375 kts 261°
2026-05-03 20:17 -24.55869 -48.48163 34238 ft 374 kts 261°
2026-05-03 20:18 -24.56846 -48.53785 34227 ft 374 kts 261°
2026-05-03 20:18 -24.57811 -48.59357 34241 ft 375 kts 261°
2026-05-03 20:19 -24.58782 -48.64968 34253 ft 374 kts 260°
2026-05-03 20:19 -24.59751 -48.70585 34231 ft 373 kts 261°
2026-05-03 20:20 -24.60714 -48.76182 34244 ft 373 kts 261°
2026-05-03 20:20 -24.61675 -48.81778 34235 ft 373 kts 261°
2026-05-03 20:21 -24.62635 -48.87380 34237 ft 372 kts 261°
2026-05-03 20:21 -24.63590 -48.92966 34239 ft 372 kts 261°
2026-05-03 20:22 -24.64543 -48.98554 34238 ft 372 kts 261°
2026-05-03 20:22 -24.65492 -49.04138 34241 ft 372 kts 261°
2026-05-03 20:23 -24.66441 -49.09723 34250 ft 371 kts 261°
2026-05-03 20:23 -24.67387 -49.15309 34241 ft 371 kts 261°
2026-05-03 20:24 -24.68329 -49.20886 34244 ft 371 kts 260°
2026-05-03 20:24 -24.69262 -49.26427 34256 ft 371 kts 260°
2026-05-03 20:25 -24.70203 -49.32017 34242 ft 371 kts 261°
2026-05-03 20:25 -24.71140 -49.37609 34238 ft 371 kts 261°
2026-05-03 20:26 -24.72076 -49.43197 34241 ft 371 kts 261°
2026-05-03 20:26 -24.73001 -49.48736 34243 ft 371 kts 261°
2026-05-03 20:27 -24.73931 -49.54318 34240 ft 371 kts 260°
2026-05-03 20:27 -24.74859 -49.59903 34236 ft 371 kts 260°
2026-05-03 20:28 -24.75784 -49.65487 34242 ft 371 kts 260°
2026-05-03 20:28 -24.76707 -49.71065 34239 ft 371 kts 260°
2026-05-03 20:29 -24.77629 -49.76649 34236 ft 371 kts 260°
2026-05-03 20:29 -24.78542 -49.82196 34231 ft 371 kts 261°
2026-05-03 20:30 -24.79460 -49.87791 34230 ft 371 kts 261°
2026-05-03 20:30 -24.80376 -49.93380 34236 ft 371 kts 261°
2026-05-03 20:31 -24.81288 -49.98960 34237 ft 371 kts 261°
2026-05-03 20:31 -24.82200 -50.04551 34219 ft 371 kts 260°
2026-05-03 20:32 -24.83107 -50.10135 34216 ft 371 kts 260°
2026-05-03 20:32 -24.84014 -50.15719 34217 ft 371 kts 260°
2026-05-03 20:33 -24.84919 -50.21312 34213 ft 371 kts 260°
2026-05-03 20:33 -24.85218 -50.23167 34215 ft 371 kts 260°
2026-05-03 20:34 -24.87496 -50.37317 34209 ft 370 kts 260°
2026-05-03 20:35 -24.88392 -50.42906 34201 ft 370 kts 260°
2026-05-03 20:35 -24.89284 -50.48484 34198 ft 370 kts 260°
2026-05-03 20:36 -24.90174 -50.54063 34200 ft 369 kts 260°
2026-05-03 20:36 -24.91062 -50.59643 34198 ft 370 kts 260°
2026-05-03 20:37 -24.91948 -50.65222 34193 ft 370 kts 260°
2026-05-03 20:37 -24.92389 -50.68009 34192 ft 370 kts 260°
2026-05-03 20:38 -24.93706 -50.76344 34197 ft 370 kts 260°
2026-05-03 20:38 -24.94587 -50.81936 34179 ft 370 kts 260°
2026-05-03 20:39 -24.95466 -50.87523 34185 ft 370 kts 260°
2026-05-03 20:39 -24.96340 -50.93100 34183 ft 369 kts 260°
2026-05-03 20:40 -24.97212 -50.98679 34185 ft 369 kts 260°
2026-05-03 20:40 -24.98084 -51.04266 34175 ft 369 kts 260°
2026-05-03 20:41 -24.98948 -51.09822 34188 ft 370 kts 260°
2026-05-03 20:41 -24.99816 -51.15415 34174 ft 370 kts 260°
2026-05-03 20:42 -25.00682 -51.21009 34146 ft 369 kts 260°
2026-05-03 20:42 -25.01544 -51.26593 34154 ft 370 kts 260°
2026-05-03 20:43 -25.02404 -51.32180 34139 ft 369 kts 261°
2026-05-03 20:43 -25.03264 -51.37778 34155 ft 370 kts 260°
2026-05-03 20:44 -25.04119 -51.43362 34145 ft 369 kts 260°
2026-05-03 20:44 -25.04974 -51.48954 34147 ft 369 kts 260°
2026-05-03 20:45 -25.05826 -51.54544 34146 ft 369 kts 260°
2026-05-03 20:45 -25.06669 -51.60094 34147 ft 369 kts 260°
2026-05-03 20:46 -25.07516 -51.65680 34143 ft 369 kts 260°
2026-05-03 20:46 -25.08364 -51.71281 34144 ft 369 kts 260°
2026-05-03 20:47 -25.09206 -51.76868 34144 ft 369 kts 260°
2026-05-03 20:47 -25.10048 -51.82464 34139 ft 369 kts 260°
2026-05-03 20:48 -25.10887 -51.88054 34155 ft 369 kts 260°
2026-05-03 20:48 -25.11725 -51.93655 34156 ft 369 kts 261°
2026-05-03 20:49 -25.12559 -51.99245 34150 ft 369 kts 261°
2026-05-03 20:49 -25.13387 -52.04802 34137 ft 369 kts 260°
2026-05-03 20:50 -25.14218 -52.10403 34137 ft 369 kts 260°
2026-05-03 20:50 -25.15045 -52.15990 34138 ft 369 kts 260°
2026-05-03 20:51 -25.15871 -52.21581 34138 ft 369 kts 260°
2026-05-03 20:51 -25.16695 -52.27179 34139 ft 369 kts 260°
2026-05-03 20:52 -25.17517 -52.32776 34142 ft 369 kts 261°
2026-05-03 20:52 -25.18337 -52.38377 34137 ft 369 kts 261°
2026-05-03 20:53 -25.19155 -52.43972 34135 ft 369 kts 260°
2026-05-03 20:53 -25.19963 -52.49515 34120 ft 368 kts 261°
2026-05-03 20:54 -25.20774 -52.55099 34125 ft 368 kts 261°
2026-05-03 20:54 -25.21991 -52.63502 34132 ft 370 kts 261°
2026-05-03 20:55 -25.22802 -52.69115 34122 ft 370 kts 261°
2026-05-03 20:55 -25.23610 -52.74728 34119 ft 370 kts 261°
2026-05-03 20:56 -25.24411 -52.80295 33472 ft 364 kts 261°
2026-05-03 20:56 -25.24805 -52.83047 32914 ft 362 kts 261°
2026-05-03 20:56 -25.25204 -52.85833 32390 ft 371 kts 261°
2026-05-03 20:57 -25.25608 -52.88660 31831 ft 374 kts 261°
2026-05-03 20:57 -25.26013 -52.91500 31262 ft 374 kts 261°
2026-05-03 20:57 -25.26417 -52.94330 30690 ft 371 kts 261°
2026-05-03 20:57 -25.26816 -52.97134 30130 ft 368 kts 262°
2026-05-03 20:58 -25.27212 -52.99913 29569 ft 365 kts 262°
2026-05-03 20:58 -25.27601 -53.02649 29011 ft 363 kts 262°
2026-05-03 20:58 -25.27992 -53.05400 28452 ft 361 kts 262°
2026-05-03 20:58 -25.28379 -53.08135 27901 ft 360 kts 262°
2026-05-03 20:59 -25.28765 -53.10860 27342 ft 358 kts 261°
2026-05-03 20:59 -25.29149 -53.13578 26794 ft 356 kts 261°
2026-05-03 20:59 -25.29530 -53.16281 26251 ft 355 kts 261°
2026-05-03 20:59 -25.29847 -53.18984 25650 ft 356 kts 266°
2026-05-03 21:00 -25.29994 -53.21711 25149 ft 353 kts 265°
2026-05-03 21:00 -25.30102 -53.23501 24874 ft 351 kts 265°
2026-05-03 21:00 -25.30332 -53.27085 24242 ft 347 kts 264°
2026-05-03 21:00 -25.30507 -53.29734 23756 ft 345 kts 264°
2026-05-03 21:01 -25.30683 -53.32367 23266 ft 343 kts 264°
2026-05-03 21:01 -25.30858 -53.34988 22803 ft 341 kts 265°
2026-05-03 21:01 -25.31032 -53.37605 22337 ft 340 kts 265°
2026-05-03 21:01 -25.31203 -53.40171 21885 ft 338 kts 265°
2026-05-03 21:02 -25.31376 -53.42759 21433 ft 337 kts 265°
2026-05-03 21:02 -25.31546 -53.45335 20984 ft 336 kts 265°
2026-05-03 21:02 -25.31717 -53.47915 20540 ft 335 kts 265°
2026-05-03 21:02 -25.31885 -53.50470 20108 ft 333 kts 265°
2026-05-03 21:03 -25.32052 -53.53009 19688 ft 330 kts 265°
2026-05-03 21:03 -25.32219 -53.55537 19270 ft 329 kts 265°
2026-05-03 21:03 -25.32383 -53.58051 18857 ft 327 kts 266°
2026-05-03 21:03 -25.32546 -53.60558 18450 ft 326 kts 266°
2026-05-03 21:04 -25.32709 -53.63072 18014 ft 331 kts 266°
2026-05-03 21:04 -25.32875 -53.65628 17611 ft 335 kts 266°
2026-05-03 21:04 -25.33042 -53.68196 17207 ft 334 kts 266°
2026-05-03 21:04 -25.33206 -53.70746 16809 ft 331 kts 266°
2026-05-03 21:05 -25.33370 -53.73278 16412 ft 329 kts 266°
2026-05-03 21:05 -25.33531 -53.75792 16013 ft 327 kts 266°
2026-05-03 21:05 -25.33691 -53.78300 15615 ft 325 kts 266°
2026-05-03 21:05 -25.33848 -53.80750 15228 ft 323 kts 266°
2026-05-03 21:06 -25.34006 -53.83220 14838 ft 320 kts 266°
2026-05-03 21:06 -25.34161 -53.85665 14448 ft 318 kts 266°
2026-05-03 21:06 -25.34315 -53.88096 14066 ft 316 kts 266°
2026-05-03 21:06 -25.34468 -53.90515 13681 ft 314 kts 267°
2026-05-03 21:07 -25.34619 -53.92922 13301 ft 313 kts 267°
2026-05-03 21:07 -25.34770 -53.95323 12921 ft 315 kts 267°
2026-05-03 21:07 -25.34923 -53.97762 12531 ft 320 kts 267°
2026-05-03 21:07 -25.35078 -54.00236 12138 ft 323 kts 267°
2026-05-03 21:08 -25.35230 -54.02679 11750 ft 322 kts 268°
2026-05-03 21:08 -25.35383 -54.05150 11358 ft 320 kts 268°
2026-05-03 21:08 -25.35536 -54.07598 11007 ft 318 kts 268°
2026-05-03 21:08 -25.35685 -54.10009 10836 ft 309 kts 268°
2026-05-03 21:09 -25.35829 -54.12347 10684 ft 300 kts 268°
2026-05-03 21:09 -25.35964 -54.14531 10541 ft 292 kts 268°
2026-05-03 21:09 -25.36102 -54.16786 10389 ft 283 kts 268°
2026-05-03 21:09 -25.36233 -54.18924 10242 ft 275 kts 268°
2026-05-03 21:10 -25.36361 -54.21007 10052 ft 269 kts 268°
2026-05-03 21:10 -25.36486 -54.23064 9746 ft 269 kts 268°
2026-05-03 21:10 -25.36612 -54.25146 9425 ft 274 kts 268°
2026-05-03 21:10 -25.36740 -54.27245 9098 ft 279 kts 268°
2026-05-03 21:11 -25.36870 -54.29390 8785 ft 281 kts 268°
2026-05-03 21:11 -25.37001 -54.31552 8467 ft 282 kts 268°
2026-05-03 21:11 -25.37131 -54.33715 8143 ft 282 kts 268°
2026-05-03 21:11 -25.37261 -54.35872 7818 ft 280 kts 268°
2026-05-03 21:12 -25.37389 -54.38020 7497 ft 279 kts 268°
2026-05-03 21:12 -25.37518 -54.40166 7185 ft 278 kts 268°
2026-05-03 21:12 -25.37645 -54.42295 6873 ft 277 kts 268°
2026-05-03 21:12 -25.37771 -54.44415 6557 ft 276 kts 268°
2026-05-03 21:13 -25.37897 -54.46527 6246 ft 275 kts 268°
2026-05-03 21:13 -25.38022 -54.48635 5937 ft 274 kts 268°
2026-05-03 21:13 -25.38146 -54.50728 5629 ft 272 kts 268°
2026-05-03 21:13 -25.38268 -54.52790 5318 ft 271 kts 268°
2026-05-03 21:14 -25.38390 -54.54852 5130 ft 265 kts 268°
2026-05-03 21:14 -25.38509 -54.56855 5003 ft 256 kts 267°
2026-05-03 21:14 -25.38976 -54.58721 4781 ft 253 kts 240°
2026-05-03 21:14 -25.40185 -54.60111 4473 ft 253 kts 211°
2026-05-03 21:15 -25.41778 -54.60893 4240 ft 249 kts 201°
2026-05-03 21:15 -25.43390 -54.61581 4016 ft 245 kts 201°
2026-05-03 21:15 -25.44971 -54.62249 3813 ft 240 kts 200°
2026-05-03 21:15 -25.46539 -54.62812 3627 ft 234 kts 187°
2026-05-03 21:16 -25.48065 -54.62635 3510 ft 218 kts 159°
2026-05-03 21:16 -25.49341 -54.61821 3316 ft 208 kts 139°
2026-05-03 21:16 -25.50332 -54.60699 3106 ft 200 kts 129°
2026-05-03 21:16 -25.51207 -54.59528 2878 ft 194 kts 129°
2026-05-03 21:17 -25.52038 -54.58440 2676 ft 174 kts 130°
2026-05-03 21:17 -25.52551 -54.57780 2540 ft 160 kts 130°
2026-05-03 21:17 -25.53492 -54.56569 2257 ft 155 kts 131°
2026-05-03 21:17 -25.54197 -54.55662 2052 ft 155 kts 131°
2026-05-03 21:18 -25.54662 -54.55063 1917 ft 155 kts 131°
2026-05-03 21:18 -25.55367 -54.54157 1709 ft 156 kts 130°
2026-05-03 21:18 -25.56080 -54.53241 1507 ft 157 kts 130°
2026-05-03 21:18 -25.57033 -54.52014 1224 ft 156 kts 130°
2026-05-03 21:19 -25.57503 -54.51409 1091 ft 156 kts 130°
2026-05-03 21:19 -25.58207 -54.50501 988 ft 156 kts 130°
2026-05-03 21:19 -25.58913 -54.49594 822 ft 156 kts 131°
2026-05-03 21:19 -25.59567 -54.48753 770 ft 115 kts 130°
2026-05-03 21:20 -25.59939 -54.48276 769 ft 52 kts 131°
2026-05-03 21:20 -25.60133 -54.48029 771 ft 27 kts 136°
2026-05-03 21:20 -25.60231 -54.47954 771 ft 9 kts 114°
2026-05-03 21:20 -25.60204 -54.47931 771 ft 6 kts 321°
2026-05-03 21:21 -25.60157 -54.47992 771 ft 16 kts 311°
2026-05-03 21:21 -25.60068 -54.48105 771 ft 20 kts 311°
2026-05-03 21:21 -25.59969 -54.48230 770 ft 22 kts 310°
2026-05-03 21:21 -25.59866 -54.48368 769 ft 24 kts 310°
2026-05-03 21:22 -25.59806 -54.48486 768 ft 9 kts 237°
2026-05-03 21:22 -25.59842 -54.48545 769 ft 9 kts 274°
2026-05-03 21:22 -25.59804 -54.48609 769 ft 11 kts 313°
2026-05-03 21:22 -25.59748 -54.48676 769 ft 13 kts 313°
2026-05-03 21:23 -25.59721 -54.48730 769 ft 5 kts 242°
2026-05-03 21:23 -25.59753 -54.48764 769 ft 7 kts 221°
2026-05-03 21:23 -25.59762 -54.48773 769 ft 0 kts 221°